Вернуться в каталог

DELTA 1 DEB

LostLEO
NORAD 29182·DEBRIS·🇺🇸 United States

Запущен Jan 11, 1968 с Vandenberg Space Force Base

Loading…

Ближайшие Пролёты (ближайшие 24 часа)

TLE

УстаревшееSource: Space-Track

Эпоха: Mar 21, 2024, 08:38 UTC

1 29182U 68002F   24081.36039478  .00001976  00000-0  41233-2 0  9991
2 29182 105.8352 274.7159 0263362 303.6145  54.0068 13.22234020115040

Отслеживайте DELTA 1 DEB в реальном времени с AllMySat

Download on the App Store